Вернуться в каталог

STARLINK-30445

АктивенСвязьVLEO
NORAD 57873·PAYLOAD·🇺🇸 United States

Запущен Sep 16, 2023 с Cape Canaveral Space Force Station

Loading…

Ближайшие Пролёты (ближайшие 24 часа)

TLE

СвежийSource: CelesTrak SupGP

Эпоха: Sep 14, 2026, 21:14 UTC

1 57873C 23144K   26257.88520833 -.00013834  00000+0 -50106-3 0  2575
2 57873  43.0032 296.8197 0001698 274.9204   4.5957 15.27584620    19

Отслеживайте STARLINK-30445 в реальном времени с AllMySat

Download on the App Store